Location: Little Chesterford
(52.0500°N, 0.1833°E)
Time: 05:19:05
(UTC+00:00)

Cosmos 1340 Rocket - Pass Details

Date: 26 September 2023
Orbit: 512 x 549 km, 81.2° (Epoch: 29 November)

Event Time Altitude Azimuth Distance (km) Brightness Sun altitude
Rises 18:58:25 0° 345° (NNW) 2,747 6.8 -11.4°
Reaches altitude 10° 19:00:36 10° 344° (NNW) 1,848 5.9 -11.8°
Maximum altitude 19:04:40 73° 260° (W) 584 3.1 -12.4°
Drops below altitude 10° 19:08:42 10° 176° (S) 1,828 5.3 -13.0°
Sets 19:10:51 0° 174° (S) 2,713 6.1 -13.3°
